FW7772 Weather Reports


time (UTC)temp
F
wind
direction
speed
knots
gust
knots
rain 1hr
in
rain 24hr
in
rain mn
in
humidity
%
barometer
mb
20260502231929 44 0 4.3 10.4 0.00 0.00 0.00 71 1010.8
20260502230929 45 3 2.6 7.0 0.00 0.00 0.00 71 1010.8
20260502225929 45 61 3.5 10.4 0.00 0.00 0.00 71 1010.7
20260502225407 46 62 2.6 7.8 0.00 0.00 0.00 71 1010.4
20260502223929 46 24 1.7 5.2 0.00 0.00 0.00 73 1010.2
20260502222930 47 106 3.5 7.8 0.00 0.00 0.00 72 1010.2
20260502221929 47 27 4.3 10.4 0.00 0.00 0.00 72 1010.0
20260502220929 48 23 6.1 13.9 0.00 0.00 0.00 72 1009.9
20260502215929 48 21 6.1 13.9 0.00 0.00 0.00 72 1009.6
20260502215842 49 2 5.2 13.0 0.00 0.00 0.00 72 1009.6
20260502213928 49 328 5.2 12.2 0.00 0.00 0.00 72 1009.4
20260502212928 49 349 6.1 16.5 0.00 0.00 0.00 72 1009.2
20260502211929 49 10 4.3 12.2 0.00 0.00 0.00 71 1009.1
20260502211402 49 34 1.7 3.5 0.00 0.00 0.00 71 1008.9
20260502210400 50 185 0.9 1.7 0.00 0.00 0.00 70 1008.6
20260502204926 50 185 0.0 0.0 0.00 0.00 0.00 69 1008.5
20260502204843 50 185 0.9 1.7 0.00 0.00 0.00 68 1008.5
20260502202926 51 185 0.9 2.6 0.00 0.00 0.00 69 1008.4
20260502202414 51 211 0.9 1.7 0.00 0.00 0.00 67 1008.3
20260502200923 51 280 1.7 4.3 0.00 0.00 0.00 66 1008.3
20260502195920 51 245 3.5 8.7 0.00 0.00 0.00 66 1008.2
20260502194921 51 245 5.2 10.4 0.00 0.00 0.00 66 1008.3
20260502193922 51 231 4.3 9.6 0.00 0.00 0.00 65 1008.2
20260502192920 52 258 2.6 6.1 0.00 0.00 0.00 66 1008.2
20260502192405 52 274 4.3 11.3 0.00 0.00 0.00 65 1008.1
20260502191407 52 231 3.5 8.7 0.00 0.00 0.00 65 1008.1
20260502185920 52 203 3.5 7.8 0.00 0.00 0.00 65 1008.2
20260502184921 53 254 4.3 8.7 0.00 0.00 0.00 65 1008.1
20260502183920 53 236 3.5 7.8 0.00 0.00 0.00 65 1008.2
20260502182915 53 237 2.6 6.1 0.00 0.00 0.00 63 1008.2
20260502181916 54 247 4.3 7.0 0.00 0.00 0.00 62 1008.3
20260502180914 54 241 5.2 10.4 0.00 0.00 0.00 61 1008.3
20260502163906 57 300 5.2 8.7 0.00 0.00 0.00 52 1008.0
20260502162906 58 266 5.2 9.6 0.00 0.00 0.00 49 1008.1
20260502161907 58 272 4.3 9.6 0.00 0.00 0.00 45 1008.2
20260502160906 58 300 6.1 12.2 0.00 0.00 0.00 44 1008.2
20260502151906 57 310 7.0 11.3 0.00 0.00 0.00 48 1008.7
20260502150906 58 325 7.0 9.6 0.00 0.00 0.00 50 1008.7
20260502122901 64 291 10.4 17.4 0.00 0.00 0.00 33 1008.6
20260502121901 63 310 8.7 16.5 0.00 0.00 0.00 33 1008.8
20260502120901 64 305 11.3 16.5 0.00 0.00 0.00 32 1008.8
20260502115901 65 270 11.3 20.0 0.00 0.00 0.00 31 1008.8
20260502114901 65 310 10.4 13.9 0.00 0.00 0.00 32 1008.8
20260502113901 65 305 8.7 13.9 0.00 0.00 0.00 30 1008.9
20260502112901 65 285 11.3 20.0 0.00 0.00 0.00 30 1008.9
20260502111900 67 258 10.4 16.5 0.00 0.00 0.00 29 1009.0
20260502110900 67 305 9.6 17.4 0.00 0.00 0.00 28 1009.1
20260502105902 65 277 7.0 15.6 0.00 0.00 0.00 30 1009.4
20260502104901 65 281 7.8 15.6 0.00 0.00 0.00 31 1009.4
20260502103901 64 266 10.4 18.2 0.00 0.00 0.00 32 1009.5
20260502102901 66 331 10.4 17.4 0.00 0.00 0.00 30 1009.2
20260502101901 67 242 7.8 17.4 0.00 0.00 0.00 29 1009.6
20260502100901 67 261 7.8 17.4 0.00 0.00 0.00 29 1009.7
20260502090901 64 258 5.2 14.8 0.00 0.00 0.00 34 1009.9
20260502070902 58 259 6.1 11.3 0.00 0.00 0.00 43 1011.1
20260502065833 57 273 5.2 12.2 0.00 0.00 0.00 43 1011.2
20260502064833 56 276 7.0 13.0 0.00 0.00 0.00 45 1011.1
20260502063833 56 249 6.1 11.3 0.00 0.00 0.00 48 1011.2
20260502063314 54 241 7.0 12.2 0.00 0.00 0.00 51 1011.3
20260502061833 53 300 6.1 11.3 0.00 0.00 0.00 53 1011.3
20260502060833 53 244 7.8 13.0 0.00 0.00 0.00 55 1011.5
20260502055834 52 260 7.0 11.3 0.00 0.00 0.00 58 1011.6
20260502054833 51 262 6.1 10.4 0.00 0.00 0.00 61 1011.7
20260502053833 50 222 7.0 13.0 0.00 0.00 0.00 63 1011.8
20260502052830 48 277 5.2 9.6 0.00 0.00 0.00 68 1011.7
20260502051831 47 231 5.2 9.6 0.00 0.00 0.00 72 1011.7
20260502050830 44 222 3.5 7.8 0.00 0.00 0.00 78 1011.6
20260502045832 43 245 2.6 5.2 0.00 0.00 0.00 82 1011.8
20260502045307 41 264 2.6 5.2 0.00 0.00 0.00 85 1011.7
20260502044308 39 300 3.5 9.6 0.00 0.00 0.00 87 1011.7
20260502043301 38 295 2.6 4.3 0.00 0.00 0.00 86 1011.9
20260502041829 37 276 1.7 2.6 0.00 0.00 0.00 85 1011.9
20260502040829 37 291 1.7 2.6 0.00 0.00 0.00 84 1011.9
20260502040746 37 270 2.6 3.5 0.00 0.00 0.00 83 1012.0
20260502034829 37 280 2.6 4.3 0.00 0.00 0.00 83 1012.1
20260502033829 37 324 1.7 3.5 0.00 0.00 0.00 82 1012.3
20260502032829 37 270 0.0 1.7 0.00 0.00 0.00 81 1012.4
20260502031830 37 277 1.7 2.6 0.00 0.00 0.00 80 1012.5
20260502030830 37 277 1.7 2.6 0.00 0.00 0.00 80 1012.5
20260502025828 38 266 1.7 2.6 0.00 0.00 0.00 79 1012.7
20260502024831 38 248 1.7 2.6 0.00 0.00 0.00 79 1012.8
20260502023829 38 289 2.6 3.5 0.00 0.00 0.00 78 1012.8
20260502022829 38 314 1.7 3.5 0.00 0.00 0.00 77 1012.8
20260502021829 39 288 3.5 7.0 0.00 0.00 0.00 77 1012.9
20260502020829 39 240 1.7 6.1 0.00 0.00 0.00 75 1012.8
20260502015829 40 294 0.9 2.6 0.00 0.00 0.00 74 1012.9
20260502014830 40 237 1.7 2.6 0.00 0.00 0.00 73 1013.1
20260502014316 41 314 1.7 3.5 0.00 0.00 0.00 72 1013.3
20260502012829 42 284 0.9 2.6 0.00 0.00 0.00 70 1013.4
20260502011829 43 226 0.9 1.7 0.00 0.00 0.00 69 1013.6
20260502010828 44 213 1.7 2.6 0.00 0.00 0.00 68 1013.6
20260502005829 45 287 1.7 3.5 0.00 0.00 0.00 65 1013.8
20260502004828 46 300 0.9 2.6 0.00 0.00 0.00 64 1013.8
20260502003828 47 300 0.9 2.6 0.00 0.00 0.00 63 1013.9
20260502002829 48 300 0.9 1.7 0.00 0.00 0.00 62 1014.0
20260502002315 49 300 1.7 2.6 0.00 0.00 0.00 60 1014.0
20260502000829 50 263 1.7 3.5 0.00 0.00 0.00 58 1014.0
20260501235829 51 254 0.0 1.7 0.00 0.00 0.00 56 1014.1
20260501234828 53 271 0.0 1.7 0.00 0.00 0.00 55 1014.2
20260501233828 53 261 1.7 5.2 0.00 0.00 0.00 53 1014.3
20260501232829 54 263 2.6 7.8 0.00 0.00 0.00 52 1014.2